Weather History for KGVL - February, 2013

Change the Weather History Date:

Tuesday, February 5, 2013

  Actual Average Record
Temperature  
Mean Temperature 45 °F 44 °F  
Max Temperature 54 °F 53 °F 72 °F (1991)
Min Temperature 36 °F 35 °F 4 °F (1970)
Degree Days  
Heating Degree Days 20 21  
Month to date heating degree days 109  
Since 1 July heating degree days 2027  
Moisture  
Dew Point 38 °F    
Average Humidity 71    
Maximum Humidity 90    
Minimum Humidity 56    
Precipitation  
Precipitation 0.00 in 0.15 in 1.83 in (1945)
Month to date precipitation 0.79  
Year to date precipitation 5.82  
Sea Level Pressure  
Sea Level Pressure 30.01 in    
Wind  
Wind Speed 5 mph (West)    
Max Wind Speed 15 mph    
Max Gust Speed 22 mph    
Visibility 10 miles    
Events      
T = Trace of Precipitation, MM = Missing Value Source: NWS Daily Summary

Daily Weather History Graph

Daily Weather History Graph

Search for Another Location

Airport or City:

Trip Planner

Search our weather history database for the weather conditions in past years. The results will help you decide how hot, cold, wet, or windy it might be!

Date:

Astronomy

Feb. 05, 2013 Rise Set
Actual Time 7:29 AM EST 6:09 PM EST
Civil Twilight 7:03 AM EST 6:35 PM EST
Nautical Twilight 6:33 AM EST 7:05 PM EST
Astronomical Twilight 6:04 AM EST 7:35 PM EST
Moon 3:05 AM EST (2/5) 1:31 PM EST (2/5)
Length of Visible Light 11h 32m
Length of Day
10h 40m
Waning Crescent, 27% of the Moon is Illuminated
Feb 5
Waning Crescent
Feb 10
New
Feb 17
First Quarter
Feb 25
Full
Mar 4
Last Quarter

Hourly Weather History & Observations

Time (EST) Temp. Windchill Dew Point Humidity Pressure Visibility Wind Dir Wind Speed Gust Speed Precip Events Conditions
12:53 AM 39.9 °F - 28.9 °F 65% 30.00 in 10.0 mi Calm Calm - N/A   Overcast
1:53 AM 37.9 °F 35.5 °F 28.0 °F 68% 30.00 in 10.0 mi West 3.5 mph - N/A   Clear
2:53 AM 36.0 °F 32.1 °F 30.9 °F 82% 29.99 in 10.0 mi West 4.6 mph - N/A   Clear
3:53 AM 36.0 °F - 28.9 °F 76% 29.98 in 10.0 mi Calm Calm - N/A   Partly Cloudy
4:53 AM 39.0 °F 35.7 °F 28.0 °F 65% 29.98 in 10.0 mi West 4.6 mph - N/A   Mostly Cloudy
5:53 AM 37.9 °F - 28.9 °F 70% 29.98 in 10.0 mi Calm Calm - N/A   Scattered Clouds
6:53 AM 37.9 °F 33.5 °F 32.0 °F 79% 30.00 in 10.0 mi NW 5.8 mph - N/A   Overcast
7:53 AM 41.0 °F 37.1 °F 32.0 °F 70% 30.01 in 10.0 mi West 5.8 mph - N/A   Overcast
8:53 AM 44.1 °F - 32.0 °F 63% 30.02 in 10.0 mi Calm Calm - N/A   Overcast
9:53 AM 46.0 °F 41.9 °F 33.1 °F 61% 30.04 in 10.0 mi West 8.1 mph - N/A   Overcast
10:00 AM 46.4 °F 42.9 °F 33.8 °F 62% 30.03 in 10.0 mi West 6.9 mph - N/A   Overcast
10:37 AM 48.2 °F - 33.8 °F 58% 30.03 in 10.0 mi West 6.9 mph - N/A   Overcast
10:53 AM 48.9 °F - 34.0 °F 56% 30.03 in 10.0 mi West 6.9 mph - N/A   Overcast
11:53 AM 51.1 °F - 37.0 °F 59% 30.03 in 10.0 mi West 15.0 mph 21.9 mph N/A   Overcast
12:02 PM 51.8 °F - 37.4 °F 58% 30.03 in 10.0 mi West 12.7 mph 18.4 mph N/A   Overcast
12:53 PM 48.9 °F - 37.0 °F 64% 30.03 in 10.0 mi West 11.5 mph - N/A   Overcast
1:25 PM 50.0 °F - 37.4 °F 62% 30.01 in 10.0 mi West 9.2 mph - N/A   Overcast
1:53 PM 50.0 °F - 37.0 °F 61% 30.00 in 10.0 mi West 8.1 mph - N/A   Overcast
2:12 PM 51.8 °F - 37.4 °F 58% 29.99 in 10.0 mi WSW 8.1 mph - N/A   Overcast
2:53 PM 52.0 °F - 39.9 °F 63% 29.99 in 10.0 mi WSW 11.5 mph - N/A   Overcast
3:11 PM 51.8 °F - 41.0 °F 67% 29.99 in 10.0 mi SW 12.7 mph - N/A   Overcast
3:53 PM 54.0 °F - 43.0 °F 66% 29.99 in 10.0 mi WSW 12.7 mph - N/A   Clear
4:53 PM 54.0 °F - 43.0 °F 66% 29.99 in 10.0 mi WSW 9.2 mph - N/A   Mostly Cloudy
5:05 PM 53.6 °F - 44.6 °F 72% 29.99 in 10.0 mi WSW 6.9 mph - N/A   Overcast
5:46 PM 51.8 °F - 44.6 °F 76% 29.99 in 10.0 mi WSW 9.2 mph - N/A   Scattered Clouds
5:53 PM 52.0 °F - 44.1 °F 74% 29.99 in 10.0 mi West 8.1 mph - N/A   Partly Cloudy
6:53 PM 51.1 °F - 44.1 °F 77% 30.01 in 10.0 mi West 3.5 mph - N/A   Mostly Cloudy
7:53 PM 50.0 °F - 44.1 °F 80% 30.01 in 10.0 mi WSW 9.2 mph - N/A   Scattered Clouds
8:53 PM 51.1 °F - 45.0 °F 80% 30.02 in 10.0 mi NNW 3.5 mph - N/A   Mostly Cloudy
9:27 PM 48.2 °F - 44.6 °F 87% 30.02 in 9.0 mi Calm Calm - N/A   Scattered Clouds
9:53 PM 46.9 °F - 43.0 °F 86% 30.03 in 9.0 mi Calm Calm - N/A   Clear
10:53 PM 46.9 °F - 44.1 °F 90% 30.04 in 8.0 mi West 3.5 mph - N/A   Clear
11:21 PM 48.2 °F - 44.6 °F 87% 30.05 in 9.0 mi WNW 3.5 mph - N/A   Mostly Cloudy
11:29 PM 48.2 °F - 44.6 °F 87% 30.05 in 9.0 mi West 4.6 mph - N/A   Scattered Clouds
11:53 PM 48.0 °F - 45.0 °F 89% 30.04 in 8.0 mi West 4.6 mph - N/A   Clear